This demonstration page uses our WeatherBlox Daily Observations layout. Learn more.

Left ArrowRight Arrow

Hourly Observations for August 4, 2018

Temp ( °F °C ) Dew Point ( °F °C ) Humidity (%) Winds ( mph kmh ) Pressure ( in mb ) Visibility ( mi km ) Precip ( " mm )
12:52 am 00:52 Clear 75 23.9 61 16.1 62 62 SSE 8 13 30.03 1017 10 16 0.00 0.00
1:52 am 01:52 Clear 74 23.3 61 16.1 64 64 SSE 9 15 30.03 1017 10 16 0.00 0.00
2:52 am 02:52 Clear 73 22.8 60 15.6 64 64 SSE 9 15 30.03 1017 10 16 0.00 0.00
3:52 am 03:52 Clear 71 21.7 60 15.6 68 68 SSE 9 15 30.02 1017 10 16 0.00 0.00
4:52 am 04:52 Clear 69 20.6 59 15 70 70 SSE 8 13 30.01 1016 10 16 0.00 0.00
5:52 am 05:52 Clear 69 20.6 59 15 70 70 SSE 9 15 30.02 1017 10 16 0.00 0.00
6:52 am 06:52 Sunny 69 20.6 59 15 70 70 SSE 9 15 30.04 1017 10 16 0.00 0.00
7:52 am 07:52 Sunny 73 22.8 61 16.1 66 66 SSE 12 19 30.06 1018 10 16 0.00 0.00
8:52 am 08:52 Sunny 78 25.6 63 17.2 60 60 S 12 19 30.07 1018 10 16 0.00 0.00
9:52 am 09:52 Sunny 83 28.3 65 18.3 55 55 SSE 14 22 30.06 1018 10 16 0.00 0.00
10:52 am 10:52 Sunny 88 31.1 61 16.1 40 40 S 17 28 30.06 1018 10 16 0.00 0.00
11:52 am 11:52 Mostly Sunny 91 32.8 57 13.9 32 32 S 18 30 30.05 1018 10 16 0.00 0.00
12:52 pm 12:52 Sunny 91 32.8 58 14.4 33 33 S 15 24 30.03 1017 10 16 0.00 0.00
1:52 pm 13:52 Sunny 93 33.9 57 13.9 30 30 S 17 28 30.00 1016 10 16 0.00 0.00
2:52 pm 14:52 Mostly Sunny 94 34.4 56 13.3 28 28 S 15 24 29.99 1016 10 16 0.00 0.00
3:52 pm 15:52 Sunny 94 34.4 55 12.8 27 27 SSW 16 26 29.98 1015 10 16 0.00 0.00
4:52 pm 16:52 Sunny 95 35 52 11.1 23 23 SSW 21 33 29.98 1015 10 16 0.00 0.00
5:52 pm 17:52 Sunny 93 33.9 52 11.1 25 25 S 18 30 29.97 1015 10 16 0.00 0.00
6:52 pm 18:52 Sunny 91 32.8 57 13.9 32 32 S 13 20 29.97 1015 10 16 0.00 0.00
7:52 pm 19:52 Sunny 87 30.6 59 15 39 39 S 8 13 29.98 1015 10 16 0.00 0.00
8:52 pm 20:52 Clear 80 26.7 59 15 49 49 SSW 9 15 30.00 1016 10 16 0.00 0.00
9:52 pm 21:52 Clear 80 26.7 59 15 49 49 S 8 13 30.02 1017 10 16 0.00 0.00
10:52 pm 22:52 Clear 78 25.6 58 14.4 50 50 S 6 9 30.03 1017 10 16 0.00 0.00
11:52 pm 23:52 Clear 77 25 61 16.1 58 58 SSE 7 11 30.04 1017 10 16 0.00 0.00

Powered by AerisWeather